054  
ASUS41 KCLE 241512  
RWRCLE  
OHIO REGIONAL WEATHER ROUNDUP  
NATIONAL WEATHER SERVICE WILMINGTON, OH  
1100 AM EDT SUN MAR 24 2019  
 
NOTE: "FAIR" INDICATES FEW OR NO CLOUDS BELOW 12,000 FEET WITH NO  
SIGNIFICANT WEATHER AND/OR S TO VISIBILITY
.  
 
OHZ001>008-015>018-024>027-034-035-043-044-241600-  
NORTHWEST OHIO  
 
CITY SKY/WX TMP DP RH WIND PRES REMARKS
 
DEFIANCE CLOUDY 41 33 73 SW3 30.16S  
FINDLAY CLOUDY 48 33 56 S9 30.16F  
TOLEDO EXPRESS LGT RAIN 44 26 49 CALM 30.15F  
TOLEDO EXEC CLOUDY 42 28 57 SW6 30.17F  
LIMA CLOUDY 46 29 51 S7 30.17F  

 
 
OHZ009>014-019>023-028>033-038-089-241600-  
NORTHEAST OHIO  
 
CITY SKY/WX TMP DP RH WIND PRES REMARKS
 
CLE-HOPKINS CLOUDY 45 24 43 SW7 30.20F  
CLE-LAKEFRONT PTSUNNY 44 21 40 S3 30.17F  
CUY CO. ARPT PTSUNNY 45 21 39 SW6 30.17S  
LORAIN-ELYRIA CLOUDY 41 24 51 SW7 30.17F  
ASHTABULA FAIR 42 25 50 S7 30.19F  
AKRON-CANTON CLOUDY 44 21 40 SW7 30.19S  
WOOSTER CLOUDY 42 25 50 SW8 30.19F  
MANSFIELD CLOUDY 47 24 40 S12 30.18S  
YOUNGSTOWN CLOUDY 42 22 44 S6 30.18F  

 
 
OHZ042-051>053-060>062-070>072-077>081-241600-  
SOUTHWEST OHIO  
 
CITY SKY/WX TMP DP RH WIND PRES REMARKS
 
CINC-COVINGTON CLOUDY 52 22 30 S6 30.20R  
CINC-LUNKEN FAIR 49 28 44 S5 30.22R  
HAMILTON CLOUDY 48 29 47 CALM 30.21F  
DAYTON CLOUDY 51 22 31 S9 30.19S  
WRIGHT-PAT AFB PTSUNNY 47 25 41 CALM 30.19S  
DAYTON GENERAL CLOUDY 49 24 37 S6 30.19S  
WILMINGTON CLOUDY 49 24 37 S6 30.19S  

 
 
OHZ036-037-039>041-045>050-054>059-063>069-073>076-082>088-241600-  
CENTRAL AND SOUTHEAST OHIO  
 
CITY SKY/WX TMP DP RH WIND PRES REMARKS
 
COLUMBUS PTSUNNY 48 20 32 S6 30.21S  
OSU AIRPORT PTSUNNY 46 23 40 S5 30.20S  
BOLTON FIELD PTSUNNY 45 27 49 S5 30.21F  
RICKENBACK AFB FAIR 44 28 52 S6 30.21S  
NEWARK FAIR 45 30 55 CALM 30.20S  
MARION N/A N/A N/A N/A MISG 30.19F  
LANCASTER FAIR 46 28 49 SE5 30.22R  
ZANESVILLE FAIR 44 25 47 S7 30.21S  
NEW PHILLY FAIR 40 25 55 SE3 30.22R  

 
 
 
CLICK HERE TO GO TO PREVIOUS BULLETINS.

The Nexlab OH Page
The Nexlab PA Page Main Text Page